KF0WJA Weather Reports


time (UTC)temp
F
wind
direction
speed
knots
gust
knots
rain 1hr
in
rain 24hr
in
rain mn
in
humidity
%
barometer
mb
20260906201250 100 101 7.8 11.3 0.00 0.00 0.00 38 1015.4
20260906200746 101 111 3.5 4.3 0.00 0.00 0.00 37 1015.5
20260906200242 101 176 1.7 1.7 0.00 0.00 0.00 37 1015.3
20260906195737 101 213 2.6 5.2 0.00 0.00 0.00 36 1015.5
20260906195233 99 161 2.6 4.3 0.00 0.00 0.00 37 1015.6
20260906194729 98 154 1.7 1.7 0.00 0.00 0.00 39 1015.8
20260906194224 97 164 0.9 1.7 0.00 0.00 0.00 39 1015.5
20260906193720 97 165 0.9 0.9 0.00 0.00 0.00 38 1015.8
20260906193220 97 206 4.3 4.3 0.00 0.00 0.00 38 1015.8
20260906192716 98 205 2.6 2.6 0.00 0.00 0.00 38 1015.9
20260906192210 98 151 0.9 0.9 0.00 0.00 0.00 37 1016.1
20260906191710 98 165 1.7 1.7 0.00 0.00 0.00 38 1016.0
20260906191204 98 180 1.7 1.7 0.00 0.00 0.00 38 1016.0
20260906190704 99 151 1.7 1.7 0.00 0.00 0.00 38 1016.1
20260906190159 98 131 3.5 4.3 0.00 0.00 0.00 38 1016.1
20260906185658 98 176 3.5 4.3 0.00 0.00 0.00 38 1016.1
20260906185157 100 140 4.3 5.2 0.00 0.00 0.00 37 1016.0
20260906184651 102 216 9.6 12.2 0.00 0.00 0.00 37 1016.0
20260906184147 102 301 3.5 4.3 0.00 0.00 0.00 34 1016.2
20260906183642 100 191 2.6 2.6 0.00 0.00 0.00 36 1016.3
20260906183139 100 176 2.6 2.6 0.00 0.00 0.00 37 1016.7
20260906182638 100 270 6.1 6.1 0.00 0.00 0.00 36 1016.6
20260906182135 99 161 1.7 1.7 0.00 0.00 0.00 37 1016.7
20260906181630 98 240 5.2 6.1 0.00 0.00 0.00 39 1016.7
20260906181126 100 283 6.1 7.8 0.00 0.00 0.00 36 1016.8
20260906180621 99 314 5.2 6.1 0.00 0.00 0.00 38 1017.0
20260906180121 99 94 1.7 1.7 0.00 0.00 0.00 38 1017.2
20260906175619 98 316 3.5 4.3 0.00 0.00 0.00 38 1017.4
20260906175114 99 139 2.6 4.3 0.00 0.00 0.00 38 1017.6
20260906174612 98 195 3.5 4.3 0.00 0.00 0.00 39 1017.7
20260906174107 99 327 3.5 4.3 0.00 0.00 0.00 38 1017.5
20260906173602 99 293 3.5 4.3 0.00 0.00 0.00 39 1017.6
20260906173058 99 186 4.3 6.1 0.00 0.00 0.00 39 1017.9
20260906172558 97 207 1.7 1.7 0.00 0.00 0.00 40 1018.0
20260906172054 96 255 2.6 2.6 0.00 0.00 0.00 42 1018.1
20260906171553 97 201 2.6 2.6 0.00 0.00 0.00 40 1018.3
20260906171049 98 208 2.6 2.6 0.00 0.00 0.00 39 1018.0
20260906170544 98 148 0.9 1.7 0.00 0.00 0.00 39 1018.3
20260906170043 97 88 1.7 2.6 0.00 0.00 0.00 40 1018.4
20260906165540 98 148 0.9 0.9 0.00 0.00 0.00 39 1018.2
20260906165035 97 158 0.0 0.9 0.00 0.00 0.00 40 1018.1
20260906164534 98 283 5.2 6.1 0.00 0.00 0.00 39 1018.2
20260906164031 99 159 0.9 1.7 0.00 0.00 0.00 39 1018.4
20260906163526 98 144 0.9 0.9 0.00 0.00 0.00 39 1018.2
20260906163021 98 124 0.0 0.9 0.00 0.00 0.00 41 1018.4
20260906162518 99 342 4.3 5.2 0.00 0.00 0.00 39 1018.5
20260906162013 98 254 2.6 4.3 0.00 0.00 0.00 39 1018.3
20260906161508 98 139 0.9 0.9 0.00 0.00 0.00 39 1018.5
20260906161007 97 25 4.3 5.2 0.00 0.00 0.00 40 1018.4
20260906160506 96 333 3.5 4.3 0.00 0.00 0.00 41 1018.3
20260906160005 97 7 4.3 6.1 0.00 0.00 0.00 40 1018.4
20260906155503 96 102 2.6 2.6 0.00 0.00 0.00 41 1018.5
20260906154959 95 125 1.7 1.7 0.00 0.00 0.00 43 1018.4
20260906154455 96 217 2.6 2.6 0.00 0.00 0.00 42 1018.3
20260906153953 96 200 2.6 2.6 0.00 0.00 0.00 42 1018.2
20260906153452 95 267 3.5 4.3 0.00 0.00 0.00 42 1018.4
20260906152947 95 252 3.5 4.3 0.00 0.00 0.00 42 1018.3
20260906152447 95 148 1.7 2.6 0.00 0.00 0.00 44 1018.3
20260906151946 95 218 3.5 4.3 0.00 0.00 0.00 43 1018.5
20260906151442 95 173 2.6 2.6 0.00 0.00 0.00 43 1018.2
20260906150938 95 161 2.6 4.3 0.00 0.00 0.00 43 1018.2
20260906150433 95 199 3.5 4.3 0.00 0.00 0.00 43 1018.2
20260906145932 94 184 1.7 2.6 0.00 0.00 0.00 44 1018.2
20260906145432 94 134 1.7 1.7 0.00 0.00 0.00 45 1018.2
20260906144927 94 188 2.6 2.6 0.00 0.00 0.00 45 1018.1
20260906144427 93 176 1.7 1.7 0.00 0.00 0.00 46 1018.1
20260906143923 93 219 3.5 4.3 0.00 0.00 0.00 46 1018.2
20260906143418 93 147 0.9 0.9 0.00 0.00 0.00 46 1018.0
20260906142914 92 160 1.7 1.7 0.00 0.00 0.00 47 1018.2
20260906142413 92 171 1.7 1.7 0.00 0.00 0.00 48 1018.3
20260906141908 91 137 0.0 0.9 0.00 0.00 0.00 51 1018.2
20260906141408 90 140 0.9 1.7 0.00 0.00 0.00 52 1018.2
20260906140902 89 138 0.9 1.7 0.00 0.00 0.00 53 1018.2
20260906140356 89 163 1.7 1.7 0.00 0.00 0.00 54 1018.3
20260906135855 88 140 1.7 1.7 0.00 0.00 0.00 55 1018.1
20260906135354 87 159 1.7 1.7 0.00 0.00 0.00 56 1018.1
20260906134850 87 158 1.7 1.7 0.00 0.00 0.00 57 1018.3
20260906134345 86 136 1.7 1.7 0.00 0.00 0.00 58 1018.1
20260906133840 85 146 1.7 2.6 0.00 0.00 0.00 59 1018.0
20260906133336 85 152 0.9 0.9 0.00 0.00 0.00 60 1018.2
20260906132831 84 147 1.7 1.7 0.00 0.00 0.00 61 1018.0
20260906132326 84 134 1.7 2.6 0.00 0.00 0.00 62 1017.9
20260906131822 82 135 0.9 0.9 0.00 0.00 0.00 64 1018.1
20260906131317 82 134 2.6 2.6 0.00 0.00 0.00 65 1017.9
20260906130813 82 138 0.0 0.0 0.00 0.00 0.00 65 1017.9
20260906130313 81 125 0.0 0.0 0.00 0.00 0.00 67 1018.0
20260906125812 80 128 0.0 0.0 0.00 0.00 0.00 69 1017.7
20260906125310 79 129 0.0 0.0 0.00 0.00 0.00 70 1017.7
20260906124810 78 125 0.0 0.0 0.00 0.00 0.00 72 1017.5
20260906124306 77 131 0.0 0.0 0.00 0.00 0.00 74 1017.5
20260906123804 76 130 0.0 0.0 0.00 0.00 0.00 74 1017.4
20260906123300 76 131 0.0 0.0 0.00 0.00 0.00 74 1017.2
20260906122759 76 140 0.0 0.0 0.00 0.00 0.00 75 1017.4
20260906122255 76 139 0.0 0.0 0.00 0.00 0.00 75 1017.1
20260906121752 75 139 0.0 0.0 0.00 0.00 0.00 75 1017.2
20260906121247 74 139 0.0 0.0 0.00 0.00 0.00 77 1017.0
20260906120743 74 147 0.0 0.0 0.00 0.00 0.00 77 1017.3
20260906120240 74 136 0.0 0.9 0.00 0.00 0.00 77 1016.9
20260906115735 73 141 0.9 0.9 0.00 0.00 0.00 78 1016.8
20260906115230 73 128 0.9 1.7 0.00 0.00 0.00 78 1016.7
20260906114729 74 130 0.0 0.0 0.00 0.00 0.00 78 1016.8
20260906114224 74 124 0.0 0.0 0.00 0.00 0.00 77 1016.6
20260906113720 74 131 0.0 0.0 0.00 0.00 0.00 77 1016.6
20260906113219 74 127 0.0 0.0 0.00 0.00 0.00 77 1016.5
20260906112718 74 131 0.0 0.0 0.00 0.00 0.00 77 1016.3
20260906112216 74 127 0.0 0.0 0.00 0.00 0.00 77 1016.7
20260906111715 73 130 0.0 0.0 0.00 0.00 0.00 78 1016.7
20260906111209 73 129 0.0 0.0 0.00 0.00 0.00 78 1016.8
20260906110705 74 131 0.0 0.0 0.00 0.00 0.00 78 1016.5
20260906110200 74 133 0.0 0.0 0.00 0.00 0.00 77 1016.5
20260906105654 74 138 0.0 0.0 0.00 0.00 0.00 76 1016.6
20260906105150 74 125 0.9 1.7 0.00 0.00 0.00 76 1016.6
20260906104649 74 127 0.0 0.0 0.00 0.00 0.00 77 1016.6
20260906104149 74 124 0.0 0.0 0.00 0.00 0.00 76 1016.3
20260906103647 74 132 0.0 0.0 0.00 0.00 0.00 76 1016.3
20260906103142 74 130 0.0 0.0 0.00 0.00 0.00 77 1016.6
20260906102637 74 132 0.0 0.0 0.00 0.00 0.00 77 1016.3
20260906102137 74 129 0.0 0.0 0.00 0.00 0.00 76 1016.7
20260906101637 74 134 0.0 0.0 0.00 0.00 0.00 76 1016.6
20260906101137 75 137 0.0 0.0 0.00 0.00 0.00 75 1016.3
20260906100633 75 128 0.0 0.0 0.00 0.00 0.00 74 1016.6
20260906100128 76 136 0.0 0.0 0.00 0.00 0.00 72 1016.5
20260906095628 76 138 0.0 0.0 0.00 0.00 0.00 72 1016.5
20260906095123 75 143 0.0 0.0 0.00 0.00 0.00 73 1016.5
20260906094622 75 141 0.0 0.0 0.00 0.00 0.00 73 1016.5
20260906094118 75 146 0.0 0.0 0.00 0.00 0.00 73 1016.7
20260906093615 75 143 0.0 0.0 0.00 0.00 0.00 74 1016.5
20260906093114 75 137 0.0 0.0 0.00 0.00 0.00 73 1016.6
20260906092609 76 132 0.0 0.0 0.00 0.00 0.00 73 1016.5
20260906092104 76 128 0.9 0.9 0.00 0.00 0.00 72 1016.2
20260906091600 76 128 0.0 0.0 0.00 0.00 0.00 71 1016.2
20260906091057 76 132 0.0 0.0 0.00 0.00 0.00 72 1016.3
20260906090556 76 133 0.0 0.0 0.00 0.00 0.00 72 1016.3
20260906090057 76 135 0.0 0.0 0.00 0.00 0.00 71 1016.5
20260906085555 77 127 0.0 0.0 0.00 0.00 0.00 70 1016.5
20260906085050 77 134 0.0 0.0 0.00 0.00 0.00 70 1016.3
20260906084545 76 131 0.0 0.0 0.00 0.00 0.00 72 1016.3
20260906084043 76 134 0.0 0.0 0.00 0.00 0.00 72 1016.3
20260906083539 76 133 0.0 0.0 0.00 0.00 0.00 71 1016.3
20260906083039 77 133 0.0 0.0 0.00 0.00 0.00 71 1016.2
20260906082534 78 131 0.0 0.0 0.00 0.00 0.00 69 1016.1
20260906082030 79 133 0.0 0.0 0.00 0.00 0.00 66 1015.9
20260906081526 79 136 0.0 0.0 0.00 0.00 0.00 66 1016.1
20260906081021 79 136 0.9 0.9 0.00 0.00 0.00 66 1016.5
20260906080518 80 141 0.9 0.9 0.00 0.00 0.00 65 1016.2
20260906080014 80 137 1.7 1.7 0.00 0.00 0.00 65 1016.2
20260906075513 79 137 2.6 2.6 0.00 0.00 0.00 65 1016.3
20260906075008 79 146 1.7 1.7 0.00 0.00 0.00 66 1016.0
20260906074503 79 145 1.7 1.7 0.00 0.00 0.00 67 1016.1
20260906074001 78 152 0.0 0.0 0.00 0.00 0.00 68 1015.9
20260906073456 79 139 0.0 0.0 0.00 0.00 0.00 68 1015.9
20260906072952 78 134 0.0 0.0 0.00 0.00 0.00 66 1016.0
20260906072447 78 132 0.0 0.0 0.00 0.00 0.00 66 1016.0
20260906071943 79 130 0.0 0.0 0.00 0.00 0.00 66 1016.1
20260906071439 79 138 0.0 0.0 0.00 0.00 0.00 66 1016.0
20260906070935 80 139 0.0 0.0 0.00 0.00 0.00 65 1016.0
20260906070431 80 141 0.0 0.0 0.00 0.00 0.00 65 1016.0
20260906065927 80 136 0.0 0.0 0.00 0.00 0.00 65 1016.0
20260906065420 80 140 0.0 0.0 0.00 0.00 0.00 65 1016.0
20260906064916 80 137 0.9 0.9 0.00 0.00 0.00 64 1015.7
20260906064413 80 144 1.7 1.7 0.00 0.00 0.00 63 1015.9
20260906063913 80 153 0.9 0.9 0.00 0.00 0.00 62 1015.8
20260906063408 80 140 0.9 0.9 0.00 0.00 0.00 63 1015.8
20260906062903 80 135 0.0 0.0 0.00 0.00 0.00 64 1015.8
20260906062402 79 139 0.0 0.0 0.00 0.00 0.00 64 1016.2
20260906061857 79 141 0.0 0.0 0.00 0.00 0.00 65 1016.1
20260906061354 80 142 0.0 0.0 0.00 0.00 0.00 65 1016.1
20260906060848 80 144 0.0 0.0 0.00 0.00 0.00 64 1016.2
20260906060346 80 137 0.0 0.0 0.00 0.00 0.00 64 1016.2
20260906055842 80 140 0.0 0.0 0.00 0.00 0.00 64 1016.3
20260906055337 80 139 0.0 0.0 0.00 0.00 0.00 64 1016.2
20260906054832 80 142 0.9 0.9 0.00 0.00 0.00 64 1016.3
20260906054327 80 140 0.0 0.0 0.00 0.00 0.00 64 1016.2
20260906053824 80 144 0.0 0.0 0.00 0.00 0.00 64 1016.2
20260906053319 80 135 0.0 0.0 0.00 0.00 0.00 65 1016.3
20260906052814 80 133 0.0 0.0 0.00 0.00 0.00 65 1016.3
20260906052311 80 136 0.9 0.9 0.00 0.00 0.00 65 1016.3
20260906051808 80 139 0.0 0.0 0.00 0.00 0.00 64 1016.3
20260906051307 81 139 0.0 0.0 0.00 0.00 0.00 64 1016.3
20260906050802 81 143 0.0 0.0 0.00 0.00 0.00 63 1016.2
20260906050257 81 144 0.0 0.0 0.00 0.00 0.00 63 1016.6
20260906045756 81 140 0.0 0.0 0.00 0.00 0.00 62 1016.3
20260906045251 82 140 0.0 0.0 0.00 0.00 0.00 62 1016.3
20260906044747 82 142 0.0 0.0 0.00 0.00 0.00 61 1016.1
20260906044242 82 146 1.7 1.7 0.00 0.00 0.00 61 1016.1
20260906043738 82 145 0.9 1.7 0.00 0.00 0.00 61 1016.3
20260906043233 82 143 1.7 1.7 0.00 0.00 0.00 61 1016.3
20260906042733 82 163 2.6 2.6 0.00 0.00 0.00 61 1016.1
20260906042232 82 146 1.7 1.7 0.00 0.00 0.00 61 1016.2
20260906041728 82 139 0.9 1.7 0.00 0.00 0.00 60 1016.2
20260906041223 83 140 1.7 1.7 0.00 0.00 0.00 60 1016.0
20260906040719 83 137 0.9 1.7 0.00 0.00 0.00 59 1016.1
20260906040214 84 142 1.7 1.7 0.00 0.00 0.00 58 1016.2
20260906035709 84 165 3.5 4.3 0.00 0.00 0.00 57 1016.2
20260906035205 83 161 1.7 1.7 0.00 0.00 0.00 58 1015.9
20260906034704 83 157 3.5 4.3 0.00 0.00 0.00 59 1015.9
20260906034159 83 147 2.6 2.6 0.00 0.00 0.00 59 1016.0
20260906033655 83 157 1.7 1.7 0.00 0.00 0.00 59 1015.9
20260906033156 83 148 1.7 1.7 0.00 0.00 0.00 59 1015.8
20260906032652 83 163 1.7 1.7 0.00 0.00 0.00 58 1015.9
20260906032146 83 158 0.0 0.0 0.00 0.00 0.00 59 1015.8
20260906031641 83 160 0.0 0.0 0.00 0.00 0.00 58 1015.9
20260906031137 83 148 0.0 0.0 0.00 0.00 0.00 58 1015.7
20260906030636 83 161 0.0 0.0 0.00 0.00 0.00 59 1015.7
20260906030132 84 148 0.0 0.0 0.00 0.00 0.00 58 1015.8
20260906025631 84 148 0.9 0.9 0.00 0.00 0.00 57 1015.8
20260906025130 85 142 0.9 0.9 0.00 0.00 0.00 57 1015.9
20260906024625 85 149 1.7 1.7 0.00 0.00 0.00 56 1015.7
20260906024119 85 159 1.7 1.7 0.00 0.00 0.00 56 1015.6
20260906023615 85 154 1.7 1.7 0.00 0.00 0.00 56 1015.4
20260906023109 85 158 0.0 0.0 0.00 0.00 0.00 56 1015.4
20260906022605 85 153 0.0 0.0 0.00 0.00 0.00 56 1015.3
20260906022100 86 151 0.0 0.0 0.00 0.00 0.00 55 1015.2
20260906021556 86 156 0.0 0.0 0.00 0.00 0.00 55 1015.1
20260906021054 86 147 0.0 0.0 0.00 0.00 0.00 54 1015.1
20260906020554 86 152 0.0 0.0 0.00 0.00 0.00 55 1015.2
20260906020054 85 161 0.0 0.0 0.00 0.00 0.00 55 1015.1
20260906015554 86 147 0.0 0.0 0.00 0.00 0.00 55 1015.0
20260906015053 86 139 1.7 1.7 0.00 0.00 0.00 54 1014.7
20260906014548 86 143 0.0 0.0 0.00 0.00 0.00 54 1014.6
20260906014044 86 146 0.0 0.0 0.00 0.00 0.00 54 1014.7
20260906013539 87 148 0.0 0.0 0.00 0.00 0.00 55 1014.7
20260906013035 87 144 0.0 0.0 0.00 0.00 0.00 53 1014.5
20260906012530 87 148 0.0 0.0 0.00 0.00 0.00 53 1014.6
20260906012029 87 157 0.0 0.0 0.00 0.00 0.00 52 1014.3
20260906011525 88 180 0.0 0.0 0.00 0.00 0.00 52 1014.3
20260906011025 89 151 0.0 0.0 0.00 0.00 0.00 50 1014.3
20260906010520 89 146 0.0 0.0 0.00 0.00 0.00 50 1014.2
20260906010017 89 134 0.9 0.9 0.00 0.00 0.00 50 1014.2
20260906005516 90 143 0.9 1.7 0.00 0.00 0.00 48 1014.2
20260906005015 90 146 0.9 0.9 0.00 0.00 0.00 47 1014.2
20260906004514 91 150 0.9 1.7 0.00 0.00 0.00 47 1014.4
20260906004009 91 161 1.7 1.7 0.00 0.00 0.00 46 1014.3
20260906003505 91 154 1.7 1.7 0.00 0.00 0.00 46 1014.3
20260906003001 92 170 2.6 2.6 0.00 0.00 0.00 44 1014.3
20260906002501 92 155 2.6 2.6 0.00 0.00 0.00 44 1014.1
20260906001956 92 153 1.7 1.7 0.00 0.00 0.00 44 1014.3
20260906001452 93 163 1.7 1.7 0.00 0.00 0.00 43 1014.3
20260906000946 94 151 0.9 0.9 0.00 0.00 0.00 42 1014.3
20260906000442 94 156 3.5 5.2 0.00 0.00 0.00 41 1014.2
20260905235941 95 169 1.7 1.7 0.00 0.00 0.00 41 1014.1
20260905235436 96 167 1.7 1.7 0.00 0.00 0.00 40 1014.2
20260905234931 96 168 1.7 1.7 0.00 0.00 0.00 39 1014.4
20260905234427 98 156 2.6 4.3 0.00 0.00 0.00 38 1014.5
20260905233926 98 157 2.6 2.6 0.00 0.00 0.00 37 1014.2
20260905233422 98 172 2.6 2.6 0.00 0.00 0.00 37 1014.2
20260905232921 98 155 4.3 5.2 0.00 0.00 0.00 37 1014.2
20260905232417 98 151 4.3 5.2 0.00 0.00 0.00 37 1014.1
20260905231912 97 171 2.6 4.3 0.00 0.00 0.00 38 1014.2
20260905231408 99 181 2.6 4.3 0.00 0.00 0.00 37 1013.9
20260905230905 99 193 2.6 2.6 0.00 0.00 0.00 35 1014.1
20260905230403 99 189 4.3 6.1 0.00 0.00 0.00 35 1014.2
20260905225901 99 166 1.7 1.7 0.00 0.00 0.00 36 1014.3
20260905225356 98 156 5.2 6.1 0.00 0.00 0.00 37 1014.4
20260905224852 98 178 7.8 8.7 0.00 0.00 0.00 37 1014.4
20260905224347 98 168 3.5 4.3 0.00 0.00 0.00 36 1014.3
20260905223842 100 155 2.6 4.3 0.00 0.00 0.00 36 1014.3
20260905223340 100 147 2.6 4.3 0.00 0.00 0.00 35 1014.1
20260905222840 100 197 4.3 5.2 0.00 0.00 0.00 35 1014.1
20260905222338 99 170 4.3 5.2 0.00 0.00 0.00 35 1014.1
20260905221835 100 152 6.1 8.7 0.00 0.00 0.00 35 1014.2
20260905221331 101 180 4.3 6.1 0.00 0.00 0.00 35 1013.9
20260905220827 101 193 4.3 6.1 0.00 0.00 0.00 35 1014.1
20260905220323 101 190 4.3 6.1 0.00 0.00 0.00 34 1014.2
20260905215822 102 202 6.1 7.0 0.00 0.00 0.00 33 1014.1
20260905215318 101 177 3.5 4.3 0.00 0.00 0.00 34 1014.1
20260905214814 101 169 7.0 7.0 0.00 0.00 0.00 33 1013.9
20260905214309 100 148 4.3 5.2 0.00 0.00 0.00 34 1013.9
20260905213804 100 141 5.2 6.1 0.00 0.00 0.00 35 1013.9
20260905213300 101 137 1.7 1.7 0.00 0.00 0.00 35 1014.1
20260905212755 102 214 4.3 4.3 0.00 0.00 0.00 35 1014.2
20260905212255 102 128 7.8 11.3 0.00 0.00 0.00 35 1014.3
20260905211755 102 190 1.7 2.6 0.00 0.00 0.00 33 1014.2
20260905211250 102 197 2.6 4.3 0.00 0.00 0.00 32 1014.6
20260905210747 100 187 3.5 4.3 0.00 0.00 0.00 33 1014.5
20260905210246 101 169 2.6 2.6 0.00 0.00 0.00 32 1014.7
20260905205745 101 173 7.0 7.8 0.00 0.00 0.00 32 1014.8
20260905205240 100 158 2.6 2.6 0.00 0.00 0.00 34 1014.7
20260905204740 102 134 3.5 5.2 0.00 0.00 0.00 33 1014.8
20260905204236 101 188 1.7 2.6 0.00 0.00 0.00 32 1014.9
20260905203735 102 140 2.6 2.6 0.00 0.00 0.00 33 1015.1
20260905203230 100 182 2.6 4.3 0.00 0.00 0.00 35 1015.2
20260905202726 100 144 6.1 7.0 0.00 0.00 0.00 34 1015.0
20260905202221 100 129 7.0 8.7 0.00 0.00 0.00 36 1015.1
20260905201717 100 160 5.2 6.1 0.00 0.00 0.00 35 1015.2